Tuolumne River Below Confluence with Cherry Creek [ USA-CAL ]

Edit Gauge

Current Conditions

Reading of "n/a" = frozen gauge or gauge error.
Reading Trend Type Updated
1690 cfs 40 cfs/hr Flow 00h48m

Station Description

AW Gauge ID: 43519
Source: virtual
Station: 10553
Enabled yes
Description:Combination of Cherry Creek below Holm Powerhouse and flow in Tuolumne below Early Intake diversion dam.
Calculation:$flow=(0.000000)+(1.000000*($gauge[4651]->getValue(GMETRIC_FLOW,0)))+(1.000000*($gauge[4655]->getValue(GMETRIC_FLOW,0)));
Data is courtesy of AW's Stream Team program. This data is calculated based on other gauges and information provided by the Stream Team. This data, and any river data, should be used with caution.

Information

Flow

Gauge History

Times listed in GMT 24h, ET and PT hours provided for convenience Graphs in GMT. Readings of "n/a" constitute a frozen gauge or gauge error.
Reading Updated (GMT) Eastern Pacific Comment
1690.00 05/25/2018 17:42:24 May 25 01:42 pm May 25 10:42 am
1680.00 05/25/2018 17:27:28 May 25 01:27 pm May 25 10:27 am
1680.00 05/25/2018 16:27:44 May 25 12:27 pm May 25 9:27 am
1680.00 05/25/2018 15:40:48 May 25 11:40 am May 25 8:40 am
1680.00 05/25/2018 15:25:52 May 25 11:25 am May 25 8:25 am
1680.00 05/25/2018 14:41:04 May 25 10:41 am May 25 7:41 am
1680.00 05/25/2018 14:26:08 May 25 10:26 am May 25 7:26 am
1680.00 05/25/2018 13:41:20 May 25 09:41 am May 25 6:41 am
1690.00 05/25/2018 13:26:24 May 25 09:26 am May 25 6:26 am
1690.00 05/25/2018 12:41:36 May 25 08:41 am May 25 5:41 am
1690.00 05/25/2018 12:26:40 May 25 08:26 am May 25 5:26 am
1690.00 05/25/2018 11:41:52 May 25 07:41 am May 25 4:41 am
1690.00 05/25/2018 11:26:56 May 25 07:26 am May 25 4:26 am
1690.00 05/25/2018 10:42:08 May 25 06:42 am May 25 3:42 am
1690.00 05/25/2018 10:27:12 May 25 06:27 am May 25 3:27 am
1690.00 05/25/2018 09:42:24 May 25 05:42 am May 25 2:42 am
1674.00 05/25/2018 09:27:28 May 25 05:27 am May 25 2:27 am
1674.00 05/25/2018 08:42:40 May 25 04:42 am May 25 1:42 am
1681.00 05/25/2018 08:27:44 May 25 04:27 am May 25 1:27 am
1711.00 05/25/2018 07:40:48 May 25 03:40 am May 25 12:40 am
1699.00 05/25/2018 07:25:52 May 25 03:25 am May 25 12:25 am
1699.00 05/25/2018 06:41:04 May 25 02:41 am May 24 11:41 pm
1729.00 05/25/2018 06:26:08 May 25 02:26 am May 24 11:26 pm
1739.00 05/25/2018 05:26:24 May 25 01:26 am May 24 10:26 pm
1739.00 05/25/2018 04:41:36 May 25 12:41 am May 24 9:41 pm
1751.00 05/25/2018 04:26:40 May 25 12:26 am May 24 9:26 pm
1751.00 05/25/2018 03:41:52 May 24 11:41 pm May 24 8:41 pm
1741.00 05/25/2018 03:26:56 May 24 11:26 pm May 24 8:26 pm
1741.00 05/25/2018 02:42:08 May 24 10:42 pm May 24 7:42 pm
1750.00 05/25/2018 02:27:12 May 24 10:27 pm May 24 7:27 pm
1750.00 05/25/2018 01:42:24 May 24 09:42 pm May 24 6:42 pm
1771.00 05/25/2018 00:42:40 May 24 08:42 pm May 24 5:42 pm
1796.00 05/25/2018 00:27:44 May 24 08:27 pm May 24 5:27 pm
1786.00 05/24/2018 23:40:48 May 24 07:40 pm May 24 4:40 pm
1816.00 05/24/2018 23:25:52 May 24 07:25 pm May 24 4:25 pm
1816.00 05/24/2018 22:41:04 May 24 06:41 pm May 24 3:41 pm
1806.00 05/24/2018 22:26:08 May 24 06:26 pm May 24 3:26 pm
1806.00 05/24/2018 21:41:20 May 24 05:41 pm May 24 2:41 pm
1800.00 05/24/2018 21:26:24 May 24 05:26 pm May 24 2:26 pm
1800.00 05/24/2018 20:41:36 May 24 04:41 pm May 24 1:41 pm
1786.00 05/24/2018 20:26:40 May 24 04:26 pm May 24 1:26 pm
1786.00 05/24/2018 19:41:52 May 24 03:41 pm May 24 12:41 pm
1810.00 05/24/2018 19:26:56 May 24 03:26 pm May 24 12:26 pm
1810.00 05/24/2018 18:42:08 May 24 02:42 pm May 24 11:42 am
1806.00 05/24/2018 18:27:12 May 24 02:27 pm May 24 11:27 am
1806.00 05/24/2018 17:42:24 May 24 01:42 pm May 24 10:42 am
1796.00 05/24/2018 17:27:28 May 24 01:27 pm May 24 10:27 am
1796.00 05/24/2018 16:42:40 May 24 12:42 pm May 24 9:42 am
1796.00 05/24/2018 16:27:44 May 24 12:27 pm May 24 9:27 am
1806.00 05/24/2018 15:40:48 May 24 11:40 am May 24 8:40 am
1776.00 05/24/2018 15:25:52 May 24 11:25 am May 24 8:25 am
1776.00 05/24/2018 14:41:04 May 24 10:41 am May 24 7:41 am
1776.00 05/24/2018 13:41:20 May 24 09:41 am May 24 6:41 am
1812.00 05/24/2018 13:26:24 May 24 09:26 am May 24 6:26 am
1812.00 05/24/2018 12:41:36 May 24 08:41 am May 24 5:41 am
1802.00 05/24/2018 12:26:40 May 24 08:26 am May 24 5:26 am
1802.00 05/24/2018 11:41:52 May 24 07:41 am May 24 4:41 am
1792.00 05/24/2018 11:26:56 May 24 07:26 am May 24 4:26 am
1792.00 05/24/2018 10:42:08 May 24 06:42 am May 24 3:42 am
1816.00 05/24/2018 10:27:12 May 24 06:27 am May 24 3:27 am
1816.00 05/24/2018 09:42:24 May 24 05:42 am May 24 2:42 am
1796.00 05/24/2018 09:27:28 May 24 05:27 am May 24 2:27 am
1796.00 05/24/2018 08:42:40 May 24 04:42 am May 24 1:42 am
1792.00 05/24/2018 08:27:44 May 24 04:27 am May 24 1:27 am
1812.00 05/24/2018 07:40:48 May 24 03:40 am May 24 12:40 am
1806.00 05/24/2018 07:25:52 May 24 03:25 am May 24 12:25 am
1806.00 05/24/2018 06:41:04 May 24 02:41 am May 23 11:41 pm
1786.00 05/24/2018 06:26:08 May 24 02:26 am May 23 11:26 pm
1786.00 05/24/2018 05:41:20 May 24 01:41 am May 23 10:41 pm
1802.00 05/23/2018 22:41:04 May 23 06:41 pm May 23 3:41 pm
1806.00 05/23/2018 22:26:08 May 23 06:26 pm May 23 3:26 pm
1806.00 05/23/2018 21:41:20 May 23 05:41 pm May 23 2:41 pm
1802.00 05/23/2018 21:26:24 May 23 05:26 pm May 23 2:26 pm
1802.00 05/23/2018 20:41:36 May 23 04:41 pm May 23 1:41 pm
1766.00 05/23/2018 20:26:40 May 23 04:26 pm May 23 1:26 pm
1766.00 05/23/2018 19:41:52 May 23 03:41 pm May 23 12:41 pm
1757.00 05/23/2018 19:26:56 May 23 03:26 pm May 23 12:26 pm
1797.00 05/23/2018 18:42:08 May 23 02:42 pm May 23 11:42 am
1782.00 05/23/2018 18:27:12 May 23 02:27 pm May 23 11:27 am
1782.00 05/23/2018 17:42:24 May 23 01:42 pm May 23 10:42 am
1782.00 05/23/2018 17:27:28 May 23 01:27 pm May 23 10:27 am
1802.00 05/23/2018 16:42:40 May 23 12:42 pm May 23 9:42 am
1797.00 05/23/2018 16:27:44 May 23 12:27 pm May 23 9:27 am
1797.00 05/23/2018 15:40:48 May 23 11:40 am May 23 8:40 am
1793.00 05/23/2018 15:25:52 May 23 11:25 am May 23 8:25 am
1793.00 05/23/2018 14:41:04 May 23 10:41 am May 23 7:41 am
1793.00 05/23/2018 14:26:08 May 23 10:26 am May 23 7:26 am
1793.00 05/23/2018 13:41:20 May 23 09:41 am May 23 6:41 am
1793.00 05/23/2018 13:26:24 May 23 09:26 am May 23 6:26 am
1793.00 05/23/2018 12:41:36 May 23 08:41 am May 23 5:41 am
1787.00 05/23/2018 12:26:40 May 23 08:26 am May 23 5:26 am
1787.00 05/23/2018 11:41:52 May 23 07:41 am May 23 4:41 am
1787.00 05/23/2018 11:26:56 May 23 07:26 am May 23 4:26 am
1787.00 05/23/2018 10:42:08 May 23 06:42 am May 23 3:42 am
1807.00 05/23/2018 10:27:12 May 23 06:27 am May 23 3:27 am
1807.00 05/23/2018 09:42:24 May 23 05:42 am May 23 2:42 am
1797.00 05/23/2018 09:27:28 May 23 05:27 am May 23 2:27 am
1797.00 05/23/2018 08:42:40 May 23 04:42 am May 23 1:42 am
1797.00 05/23/2018 08:27:44 May 23 04:27 am May 23 1:27 am
1787.00 05/23/2018 07:40:48 May 23 03:40 am May 23 12:40 am
1777.00 05/23/2018 07:25:52 May 23 03:25 am May 23 12:25 am
1777.00 05/23/2018 06:41:04 May 23 02:41 am May 22 11:41 pm
1797.00 05/23/2018 06:26:08 May 23 02:26 am May 22 11:26 pm
1797.00 05/23/2018 05:41:20 May 23 01:41 am May 22 10:41 pm
1807.00 05/23/2018 05:26:24 May 23 01:26 am May 22 10:26 pm
1807.00 05/23/2018 04:41:36 May 23 12:41 am May 22 9:41 pm
1807.00 05/23/2018 04:26:40 May 23 12:26 am May 22 9:26 pm
1807.00 05/23/2018 03:41:52 May 22 11:41 pm May 22 8:41 pm
1777.00 05/23/2018 03:26:56 May 22 11:26 pm May 22 8:26 pm
1777.00 05/23/2018 02:42:08 May 22 10:42 pm May 22 7:42 pm
1787.00 05/23/2018 02:27:12 May 22 10:27 pm May 22 7:27 pm
1787.00 05/23/2018 01:42:24 May 22 09:42 pm May 22 6:42 pm
1767.00 05/23/2018 01:27:28 May 22 09:27 pm May 22 6:27 pm
1767.00 05/23/2018 00:42:40 May 22 08:42 pm May 22 5:42 pm
1767.00 05/23/2018 00:27:44 May 22 08:27 pm May 22 5:27 pm
1787.00 05/22/2018 23:40:48 May 22 07:40 pm May 22 4:40 pm
1797.00 05/22/2018 23:25:52 May 22 07:25 pm May 22 4:25 pm
1797.00 05/22/2018 22:41:04 May 22 06:41 pm May 22 3:41 pm
1797.00 05/22/2018 22:26:08 May 22 06:26 pm May 22 3:26 pm
1767.00 05/22/2018 21:41:20 May 22 05:41 pm May 22 2:41 pm
1777.00 05/22/2018 21:26:24 May 22 05:26 pm May 22 2:26 pm
1777.00 05/22/2018 20:41:36 May 22 04:41 pm May 22 1:41 pm
1777.00 05/22/2018 20:26:40 May 22 04:26 pm May 22 1:26 pm
1777.00 05/22/2018 19:41:52 May 22 03:41 pm May 22 12:41 pm
1767.00 05/22/2018 19:26:56 May 22 03:26 pm May 22 12:26 pm
1767.00 05/22/2018 18:42:08 May 22 02:42 pm May 22 11:42 am
1797.00 05/22/2018 18:27:12 May 22 02:27 pm May 22 11:27 am
1797.00 05/22/2018 17:42:24 May 22 01:42 pm May 22 10:42 am
1797.00 05/22/2018 17:27:28 May 22 01:27 pm May 22 10:27 am
1797.00 05/22/2018 16:42:40 May 22 12:42 pm May 22 9:42 am
1797.00 05/22/2018 16:27:44 May 22 12:27 pm May 22 9:27 am
1797.00 05/22/2018 15:40:48 May 22 11:40 am May 22 8:40 am
1777.00 05/22/2018 15:25:52 May 22 11:25 am May 22 8:25 am
1777.00 05/22/2018 14:41:04 May 22 10:41 am May 22 7:41 am
1767.00 05/22/2018 14:26:08 May 22 10:26 am May 22 7:26 am
1767.00 05/22/2018 13:41:20 May 22 09:41 am May 22 6:41 am
1777.00 05/22/2018 13:26:24 May 22 09:26 am May 22 6:26 am
1777.00 05/22/2018 12:41:36 May 22 08:41 am May 22 5:41 am
1777.00 05/22/2018 12:26:40 May 22 08:26 am May 22 5:26 am
1777.00 05/22/2018 11:41:52 May 22 07:41 am May 22 4:41 am
1777.00 05/22/2018 11:26:56 May 22 07:26 am May 22 4:26 am
1777.00 05/22/2018 10:42:08 May 22 06:42 am May 22 3:42 am
1802.00 05/22/2018 10:27:12 May 22 06:27 am May 22 3:27 am
1802.00 05/22/2018 09:42:24 May 22 05:42 am May 22 2:42 am
1802.00 05/22/2018 09:27:28 May 22 05:27 am May 22 2:27 am
1802.00 05/22/2018 08:42:40 May 22 04:42 am May 22 1:42 am
1802.00 05/22/2018 08:27:44 May 22 04:27 am May 22 1:27 am
1802.00 05/22/2018 07:40:48 May 22 03:40 am May 22 12:40 am
1786.00 05/22/2018 07:25:52 May 22 03:25 am May 22 12:25 am
1786.00 05/22/2018 06:41:04 May 22 02:41 am May 21 11:41 pm
1802.00 05/22/2018 06:26:08 May 22 02:26 am May 21 11:26 pm
1802.00 05/22/2018 05:41:20 May 22 01:41 am May 21 10:41 pm
1802.00 05/22/2018 05:26:24 May 22 01:26 am May 21 10:26 pm
1802.00 05/22/2018 04:41:36 May 22 12:41 am May 21 9:41 pm
1792.00 05/22/2018 04:26:40 May 22 12:26 am May 21 9:26 pm
1792.00 05/22/2018 03:41:52 May 21 11:41 pm May 21 8:41 pm
1792.00 05/22/2018 03:26:56 May 21 11:26 pm May 21 8:26 pm
1792.00 05/22/2018 02:42:08 May 21 10:42 pm May 21 7:42 pm
1782.00 05/22/2018 02:27:12 May 21 10:27 pm May 21 7:27 pm
1782.00 05/22/2018 01:42:24 May 21 09:42 pm May 21 6:42 pm
1802.00 05/22/2018 01:27:28 May 21 09:27 pm May 21 6:27 pm
1802.00 05/22/2018 00:42:40 May 21 08:42 pm May 21 5:42 pm
1802.00 05/22/2018 00:27:44 May 21 08:27 pm May 21 5:27 pm
1792.00 05/21/2018 23:40:48 May 21 07:40 pm May 21 4:40 pm
1767.00 05/21/2018 23:25:52 May 21 07:25 pm May 21 4:25 pm
1767.00 05/21/2018 22:41:04 May 21 06:41 pm May 21 3:41 pm
1772.00 05/21/2018 22:26:08 May 21 06:26 pm May 21 3:26 pm
1782.00 05/21/2018 21:41:20 May 21 05:41 pm May 21 2:41 pm
1787.00 05/21/2018 21:26:24 May 21 05:26 pm May 21 2:26 pm
1787.00 05/21/2018 20:41:36 May 21 04:41 pm May 21 1:41 pm
1782.00 05/21/2018 20:26:40 May 21 04:26 pm May 21 1:26 pm
1782.00 05/21/2018 19:41:52 May 21 03:41 pm May 21 12:41 pm
1792.00 05/21/2018 18:42:08 May 21 02:42 pm May 21 11:42 am
1792.00 05/21/2018 18:27:12 May 21 02:27 pm May 21 11:27 am
1792.00 05/21/2018 17:42:24 May 21 01:42 pm May 21 10:42 am
1782.00 05/21/2018 17:27:28 May 21 01:27 pm May 21 10:27 am
1782.00 05/21/2018 16:42:40 May 21 12:42 pm May 21 9:42 am
1777.00 05/21/2018 16:27:44 May 21 12:27 pm May 21 9:27 am
1797.00 05/21/2018 15:40:48 May 21 11:40 am May 21 8:40 am
1802.00 05/21/2018 15:25:52 May 21 11:25 am May 21 8:25 am
1802.00 05/21/2018 14:41:04 May 21 10:41 am May 21 7:41 am
1787.00 05/21/2018 14:26:08 May 21 10:26 am May 21 7:26 am
1787.00 05/21/2018 13:41:20 May 21 09:41 am May 21 6:41 am
1787.00 05/21/2018 13:26:24 May 21 09:26 am May 21 6:26 am
1787.00 05/21/2018 12:41:36 May 21 08:41 am May 21 5:41 am
1767.00 05/21/2018 12:26:40 May 21 08:26 am May 21 5:26 am
1767.00 05/21/2018 11:41:52 May 21 07:41 am May 21 4:41 am
1763.00 05/21/2018 11:26:56 May 21 07:26 am May 21 4:26 am
1763.00 05/21/2018 10:42:08 May 21 06:42 am May 21 3:42 am
1747.00 05/21/2018 10:27:12 May 21 06:27 am May 21 3:27 am
1747.00 05/21/2018 09:42:24 May 21 05:42 am May 21 2:42 am
1807.00 05/21/2018 09:27:28 May 21 05:27 am May 21 2:27 am
1807.00 05/21/2018 08:42:40 May 21 04:42 am May 21 1:42 am
1820.00 05/21/2018 07:40:48 May 21 03:40 am May 21 12:40 am
2610.00 05/21/2018 07:25:52 May 21 03:25 am May 21 12:25 am
2610.00 05/21/2018 06:41:04 May 21 02:41 am May 20 11:41 pm
2580.00 05/21/2018 06:26:08 May 21 02:26 am May 20 11:26 pm
2580.00 05/21/2018 05:41:20 May 21 01:41 am May 20 10:41 pm
2610.00 05/21/2018 05:26:24 May 21 01:26 am May 20 10:26 pm
2610.00 05/21/2018 04:41:36 May 21 12:41 am May 20 9:41 pm
2610.00 05/21/2018 04:26:40 May 21 12:26 am May 20 9:26 pm
2610.00 05/21/2018 03:41:52 May 20 11:41 pm May 20 8:41 pm
2620.00 05/21/2018 03:26:56 May 20 11:26 pm May 20 8:26 pm
2620.00 05/21/2018 02:42:08 May 20 10:42 pm May 20 7:42 pm
2610.00 05/21/2018 02:27:12 May 20 10:27 pm May 20 7:27 pm
2610.00 05/21/2018 01:42:24 May 20 09:42 pm May 20 6:42 pm
2640.00 05/21/2018 01:27:28 May 20 09:27 pm May 20 6:27 pm
2640.00 05/21/2018 00:42:40 May 20 08:42 pm May 20 5:42 pm
2650.00 05/21/2018 00:27:44 May 20 08:27 pm May 20 5:27 pm
2630.00 05/20/2018 23:40:48 May 20 07:40 pm May 20 4:40 pm
2620.00 05/20/2018 23:25:52 May 20 07:25 pm May 20 4:25 pm
2620.00 05/20/2018 22:41:04 May 20 06:41 pm May 20 3:41 pm
2620.00 05/20/2018 22:26:08 May 20 06:26 pm May 20 3:26 pm
2620.00 05/20/2018 21:41:20 May 20 05:41 pm May 20 2:41 pm
2620.00 05/20/2018 20:41:36 May 20 04:41 pm May 20 1:41 pm
2640.00 05/20/2018 20:26:40 May 20 04:26 pm May 20 1:26 pm
2640.00 05/20/2018 19:41:52 May 20 03:41 pm May 20 12:41 pm
2640.00 05/20/2018 19:26:56 May 20 03:26 pm May 20 12:26 pm
2640.00 05/20/2018 18:42:08 May 20 02:42 pm May 20 11:42 am
2640.00 05/20/2018 18:27:12 May 20 02:27 pm May 20 11:27 am
2640.00 05/20/2018 17:42:24 May 20 01:42 pm May 20 10:42 am
2630.00 05/20/2018 17:27:28 May 20 01:27 pm May 20 10:27 am
2630.00 05/20/2018 16:42:40 May 20 12:42 pm May 20 9:42 am
2630.00 05/20/2018 16:27:44 May 20 12:27 pm May 20 9:27 am
2620.00 05/20/2018 15:40:48 May 20 11:40 am May 20 8:40 am
2620.00 05/20/2018 15:25:52 May 20 11:25 am May 20 8:25 am
2620.00 05/20/2018 14:41:04 May 20 10:41 am May 20 7:41 am
2610.00 05/20/2018 14:26:08 May 20 10:26 am May 20 7:26 am
2610.00 05/20/2018 13:41:20 May 20 09:41 am May 20 6:41 am
2630.00 05/20/2018 13:26:24 May 20 09:26 am May 20 6:26 am
2630.00 05/20/2018 12:41:36 May 20 08:41 am May 20 5:41 am
2600.00 05/20/2018 12:26:40 May 20 08:26 am May 20 5:26 am
2600.00 05/20/2018 11:41:52 May 20 07:41 am May 20 4:41 am
2620.00 05/20/2018 11:26:56 May 20 07:26 am May 20 4:26 am
2620.00 05/20/2018 10:42:08 May 20 06:42 am May 20 3:42 am
2640.00 05/20/2018 10:27:12 May 20 06:27 am May 20 3:27 am
2640.00 05/20/2018 09:42:24 May 20 05:42 am May 20 2:42 am
2630.00 05/20/2018 09:27:28 May 20 05:27 am May 20 2:27 am
2630.00 05/20/2018 08:42:40 May 20 04:42 am May 20 1:42 am
2620.00 05/20/2018 08:27:44 May 20 04:27 am May 20 1:27 am
2580.00 05/20/2018 07:40:48 May 20 03:40 am May 20 12:40 am
2620.00 05/20/2018 07:25:52 May 20 03:25 am May 20 12:25 am
2620.00 05/20/2018 06:41:04 May 20 02:41 am May 19 11:41 pm
2610.00 05/20/2018 06:26:08 May 20 02:26 am May 19 11:26 pm
2610.00 05/20/2018 05:41:20 May 20 01:41 am May 19 10:41 pm
2630.00 05/20/2018 05:26:24 May 20 01:26 am May 19 10:26 pm
2630.00 05/20/2018 04:41:36 May 20 12:41 am May 19 9:41 pm
2590.00 05/20/2018 04:26:40 May 20 12:26 am May 19 9:26 pm
2590.00 05/20/2018 03:41:52 May 19 11:41 pm May 19 8:41 pm
2580.00 05/20/2018 03:26:56 May 19 11:26 pm May 19 8:26 pm
2590.00 05/20/2018 02:42:08 May 19 10:42 pm May 19 7:42 pm
2410.00 05/20/2018 02:27:12 May 19 10:27 pm May 19 7:27 pm
2410.00 05/20/2018 01:42:24 May 19 09:42 pm May 19 6:42 pm
2390.00 05/20/2018 01:27:28 May 19 09:27 pm May 19 6:27 pm
2390.00 05/20/2018 00:42:40 May 19 08:42 pm May 19 5:42 pm
2390.00 05/20/2018 00:27:44 May 19 08:27 pm May 19 5:27 pm
2450.00 05/19/2018 23:40:48 May 19 07:40 pm May 19 4:40 pm
2450.00 05/19/2018 23:25:52 May 19 07:25 pm May 19 4:25 pm
2450.00 05/19/2018 22:41:04 May 19 06:41 pm May 19 3:41 pm
2740.00 05/19/2018 22:26:08 May 19 06:26 pm May 19 3:26 pm
2740.00 05/19/2018 21:41:20 May 19 05:41 pm May 19 2:41 pm
2770.00 05/19/2018 21:26:24 May 19 05:26 pm May 19 2:26 pm
2770.00 05/19/2018 20:41:36 May 19 04:41 pm May 19 1:41 pm
2790.00 05/19/2018 20:26:40 May 19 04:26 pm May 19 1:26 pm
2790.00 05/19/2018 19:41:52 May 19 03:41 pm May 19 12:41 pm
2730.00 05/19/2018 19:26:56 May 19 03:26 pm May 19 12:26 pm
2730.00 05/19/2018 18:42:08 May 19 02:42 pm May 19 11:42 am
2550.00 05/19/2018 18:27:12 May 19 02:27 pm May 19 11:27 am
2550.00 05/19/2018 17:42:24 May 19 01:42 pm May 19 10:42 am
2760.00 05/19/2018 17:27:28 May 19 01:27 pm May 19 10:27 am
2760.00 05/19/2018 16:42:40 May 19 12:42 pm May 19 9:42 am
2740.00 05/19/2018 16:27:44 May 19 12:27 pm May 19 9:27 am
2750.00 05/19/2018 15:40:48 May 19 11:40 am May 19 8:40 am
2790.00 05/19/2018 15:25:52 May 19 11:25 am May 19 8:25 am
2790.00 05/19/2018 14:41:04 May 19 10:41 am May 19 7:41 am
2780.00 05/19/2018 14:26:08 May 19 10:26 am May 19 7:26 am
2780.00 05/19/2018 13:41:20 May 19 09:41 am May 19 6:41 am
2750.00 05/19/2018 13:26:24 May 19 09:26 am May 19 6:26 am
2750.00 05/19/2018 12:41:36 May 19 08:41 am May 19 5:41 am
2750.00 05/19/2018 12:26:40 May 19 08:26 am May 19 5:26 am
2750.00 05/19/2018 11:41:52 May 19 07:41 am May 19 4:41 am
2750.00 05/19/2018 11:26:56 May 19 07:26 am May 19 4:26 am
2740.00 05/19/2018 10:42:08 May 19 06:42 am May 19 3:42 am
2750.00 05/19/2018 10:27:12 May 19 06:27 am May 19 3:27 am
2750.00 05/19/2018 09:42:24 May 19 05:42 am May 19 2:42 am
2720.00 05/19/2018 09:27:28 May 19 05:27 am May 19 2:27 am
2720.00 05/19/2018 08:42:40 May 19 04:42 am May 19 1:42 am
2710.00 05/19/2018 08:27:44 May 19 04:27 am May 19 1:27 am
2750.00 05/19/2018 07:40:48 May 19 03:40 am May 19 12:40 am
2760.00 05/19/2018 07:25:52 May 19 03:25 am May 19 12:25 am
2750.00 05/19/2018 06:41:04 May 19 02:41 am May 18 11:41 pm
2740.00 05/19/2018 06:26:08 May 19 02:26 am May 18 11:26 pm
2750.00 05/19/2018 05:41:20 May 19 01:41 am May 18 10:41 pm
2730.00 05/19/2018 05:26:24 May 19 01:26 am May 18 10:26 pm
2730.00 05/19/2018 04:41:36 May 19 12:41 am May 18 9:41 pm
2750.00 05/19/2018 04:26:40 May 19 12:26 am May 18 9:26 pm
2750.00 05/19/2018 03:41:52 May 18 11:41 pm May 18 8:41 pm
2730.00 05/19/2018 03:26:56 May 18 11:26 pm May 18 8:26 pm
2730.00 05/19/2018 02:42:08 May 18 10:42 pm May 18 7:42 pm
2750.00 05/19/2018 02:27:12 May 18 10:27 pm May 18 7:27 pm

Report - Reports of Related Gauges

Reports give the public a chance to report on river conditions throughout the country as well as log the history of a river.

Reports

When River/Gauge Subject Level Reporter
4y292d23h31m /Tuolumne River Below Confluence with Cherry Creek [CA] Raft in center route at Stern's 1200 cfs Paul Martzen

Linked Reaches

Click a heading to sort. Hover over a heading for help.
River Name/Section Class Level running? Updated
Tuolumne [CA] 3) Cherry Creek to Meral's Pool IV-V+ 1690 cfs
+ 40 cfs/hr
R5-
Runnable
00h48m
Tuolumne [CA] 4) Lumsden Campground (Merals Pool) to Wards Ferry Bridge IV 1690 cfs
+ 40 cfs/hr
R0-
Lower Runnable
00h48m

Associated Gauges

Disclaimer Data Sources

CHERRY C BL DION R HOLM PH NR MATHER CA (AW#4655)

420 cfs 00h46m

CHERRY C BL DION R HOLM PH NR MATHER CA (AW#4655)

7.61 ft 00h46m

TUOLUMNE R BL EARLY INTAKE NR MATHER CA (AW#4651)

1270 cfs 01h01m

TUOLUMNE R BL EARLY INTAKE NR MATHER CA (AW#4651)

5.77 ft 01h01m